Temperature
22 19 19 20 20 22 22 22 21 22 23 23 22 21 21 21 21 20 20 20 20 20 20 20 20 19 19 19 19 18 18 18 17 17 17 17 17 17 17 17 17 17 17 17
20 20 20 21 21 22 22 22 21 22 23 23 22 21 21 21 20 20 20 20 20 20 20 20 19 19 19 19 18 18 18 18 17 17 17 17 17 17 17 17 17 17 17 17
20 21 22 22 22 22 22 21 21 22 22 22 22 21 21 21 20 20 20 20 20 20 20 20 19 19 19 19 18 18 18 18 17 17 17 17 17 17 17 17 17 17 17 17
20 21 22 22 22 22 21 22 22 22 21 20 22 20 20 20 19 19 19 19 19 20 20 19 19 19 19 19 19 18 18 17 17 17 17 17 17 17 17 17 17 17 17 17
20 22 22 22 22 22 22 23 23 22 21 20 20 20 19 19 19 19 19 19 19 19 19 19 19 19 19 19 19 18 18 17 17 17 17 17 17 17 17 17 17 17 17 17
21 22 23 22 23 23 23 22 20 18 18 20 20 20 20 18 19 19 19 19 19 19 19 19 19 19 19 19 18 18 17 17 17 17 17 17 17 17 17 17 17 17 17 17
22 22 23 23 23 23 23 20 19 20 18 19 19 19 19 20 20 19 19 19 19 19 19 19 19 18 18 18 18 17 17 17 17 17 16 16 17 17 17 17 17 17 17 17
20 20 22 22 22 21 20 20 19 20 20 19 19 19 19 20 20 20 20 19 19 18 18 18 19 18 18 18 17 17 17 17 17 17 16 16 16 17 17 17 17 17 17 17
19 20 22 23 23 22 21 19 19 18 19 19 19 19 19 20 19 19 19 19 18 18 18 19 18 18 18 17 17 17 17 17 17 17 16 16 16 16 17 17 17 17 17 16
19 21 22 24 24 23 22 18 17 17 18 19 20 20 19 21 20 19 18 18 18 18 18 18 18 18 18 18 17 17 17 17 17 16 16 16 16 16 16 16 17 16 16 16
20 21 22 22 23 23 21 20 17 16 17 18 19 19 19 19 19 19 18 18 18 18 18 18 18 18 18 18 17 17 17 17 16 16 16 16 16 16 16 16 16 16 16 16
19 18 19 21 22 22 22 20 18 19 18 17 18 19 20 19 18 18 18 19 19 18 19 19 19 18 18 18 17 17 17 17 16 16 16 16 16 16 16 16 16 16 16 16
18 18 19 20 21 22 22 20 18 16 16 16 18 20 20 18 18 18 19 19 19 18 18 18 18 18 18 18 18 17 17 17 16 16 16 16 16 16 16 16 16 16 16 16
18 17 18 20 20 21 22 21 19 18 17 18 19 20 20 18 18 17 18 19 19 19 19 19 18 18 18 18 18 17 17 17 17 16 16 16 16 16 16 16 16 16 16 16
17 17 18 19 20 21 21 21 20 20 19 19 20 19 19 18 17 17 18 18 18 18 18 19 19 19 18 18 18 17 17 17 17 16 16 16 16 16 16 16 16 16 16 16
15 18 19 20 20 21 21 21 20 20 20 20 20 19 18 17 18 17 17 18 18 18 18 19 19 19 18 18 18 17 17 17 17 17 17 16 16 16 16 16 16 15 15 15
15 16 17 18 19 21 20 20 19 19 19 19 19 19 17 17 16 16 17 17 17 18 18 19 19 19 18 18 18 18 17 17 17 17 16 16 16 16 16 16 15 15 15 15
15 14 14 16 19 19 18 19 19 18 18 18 18 17 16 16 16 17 17 18 18 18 19 19 19 19 18 18 18 17 17 17 17 16 16 16 16 16 16 16 15 15 15 15
13 14 14 14 16 18 19 18 18 18 18 17 16 16 16 16 16 17 17 17 18 18 18 18 18 18 18 18 18 17 17 17 16 16 16 16 16 16 16 15 15 15 15 14
12 13 13 14 16 17 18 18 18 18 17 17 16 16 16 16 16 16 17 17 17 18 18 18 18 18 18 18 17 17 17 17 16 16 16 16 15 15 15 15 14 14 14 14
14 13 13 14 15 16 16 16 18 18 17 17 16 16 16 15 16 16 16 16 17 17 17 17 17 17 17 17 17 17 16 16 16 16 15 15 15 15 14 14 14 14 13 13
13 13 13 13 15 15 15 15 16 15 16 16 16 16 16 16 16 16 16 16 16 16 16 16 16 16 16 16 16 16 15 15 15 15 15 15 14 14 14 13 13 13 13 13
12 12 12 12 13 13 14 14 15 15 16 16 16 16 16 16 16 16 15 16 16 16 15 15 15 15 15 15 15 15 14 14 14 14 14 14 14 13 13 13 12 12 12 11
12 11 11 12 13 13 14 14 15 15 16 16 16 16 16 16 15 15 15 15 15 14 14 14 14 14 14 14 14 14 14 13 13 13 13 13 13 12 12 11 11 11 11 10
12 12 11 12 12 13 14 14 14 15 15 15 16 16 16 15 15 14 14 14 14 13 13 13 13 13 13 13 13 13 13 13 13 12 12 12 12 11 11 10 10 10 9 9
10 11 11 12 12 12 13 14 14 14 15 15 15 15 14 14 14 14 13 13 13 13 13 13 13 12 12 12 12 12 12 12 12 12 11 11 11 10 10 10 8 8 8 8
Wind_Speed
5 4 6 8 8 6 3 3 8 10 6 4 5 6 6 2 3 5 7 7 8 8 6 7 9 10 10 9 10 11 11 10 10 8 8 7 6 5 4 5 8 10 10 10
3 6 9 7 5 5 4 5 8 9 4 1 3 5 4 2 3 5 8 8 9 8 7 8 9 9 10 11 11 11 11 12 11 9 7 6 5 4 4 4 6 9 10 10
9 6 5 7 5 5 6 6 7 7 7 4 1 6 5 3 1 1 4 6 8 11 10 9 9 10 10 11 12 11 11 10 11 10 6 6 4 3 3 4 4 6 9 10
7 7 4 5 6 7 7 8 8 6 3 5 1 4 8 4 4 4 4 5 7 8 8 9 10 10 11 11 10 10 10 10 10 11 10 10 8 6 6 5 5 5 7 9
9 6 8 8 9 10 9 4 3 3 4 2 2 2 8 3 5 7 6 7 6 7 8 9 10 10 10 9 9 9 9 10 11 11 11 10 8 6 4 5 6 6 5 7
7 5 7 9 7 8 5 4 6 6 5 1 4 3 7 5 7 5 4 5 5 5 6 6 6 7 7 7 8 9 9 9 10 11 11 10 10 8 8 7 7 6 4 4
5 6 6 6 3 1 5 5 4 5 3 6 3 3 9 7 6 5 5 4 5 5 6 7 8 8 8 8 9 9 10 9 10 10 10 10 10 10 10 9 8 7 5 4
6 7 6 8 10 8 7 10 8 6 6 5 2 5 8 5 3 3 3 4 5 5 6 7 8 8 8 8 8 10 10 9 9 10 9 9 9 7 6 8 7 8 6 6
9 7 5 6 7 11 8 7 8 7 3 1 5 7 9 2 2 2 3 4 5 6 7 8 8 8 8 8 8 9 10 9 9 9 8 8 8 8 8 7 7 6 5 6
10 5 5 3 4 2 6 9 7 7 7 4 5 5 5 6 5 3 4 5 5 5 6 7 8 8 8 7 7 8 8 9 9 9 8 8 7 7 7 7 8 8 7 7
8 6 5 4 2 5 5 5 6 5 6 7 3 7 6 7 6 6 6 6 6 7 8 8 7 8 8 7 7 7 7 7 8 8 8 7 7 6 6 7 8 8 7 8
7 6 3 5 4 2 5 7 8 6 4 5 5 7 5 5 5 5 4 4 5 7 8 8 7 8 8 8 8 8 8 7 8 8 7 7 7 7 7 7 7 7 8 8
7 7 2 5 5 2 3 4 5 7 6 6 5 7 4 3 1 1 3 4 5 7 7 7 7 7 8 8 7 7 7 7 6 7 7 7 7 8 8 7 6 7 7 7
6 5 7 9 8 5 3 4 6 6 5 5 6 6 6 5 3 1 3 5 5 7 8 8 7 7 7 6 6 6 6 6 7 7 7 7 7 7 7 6 6 7 7 7
5 4 3 3 3 4 4 4 6 5 7 8 7 6 7 5 4 2 3 5 6 6 7 7 8 7 7 6 6 6 6 7 7 8 7 7 7 7 7 6 6 6 7 7
4 5 3 2 2 3 3 2 4 3 4 3 3 4 4 2 1 1 3 5 5 6 6 6 7 7 7 7 7 7 6 7 7 8 8 7 7 7 7 7 7 7 7 7
3 5 4 1 3 3 1 3 4 4 2 5 6 5 1 2 2 1 2 4 5 5 5 6 6 6 6 7 8 8 7 7 8 8 7 7 8 8 7 8 8 8 7 7
5 5 4 3 2 4 6 2 4 6 2 0 1 1 1 1 1 1 1 2 2 3 4 4 5 5 6 6 6 6 7 7 7 7 7 7 8 8 8 8 8 8 7 8
4 7 5 4 4 2 3 1 4 5 1 1 1 1 1 2 2 3 3 2 1 1 2 3 4 4 5 7 8 8 7 7 7 7 7 7 8 9 9 9 8 8 9 9
6 5 6 5 5 7 7 2 1 4 1 2 2 3 2 2 2 2 2 3 3 2 2 3 4 5 5 5 7 8 8 8 8 8 8 8 8 9 10 10 9 9 9 10
4 5 4 5 4 5 3 4 1 5 6 3 3 4 3 2 3 1 2 2 2 3 4 4 5 4 4 5 7 8 7 7 7 8 8 9 9 9 10 10 10 11 12 12
4 4 3 4 4 6 3 1 4 5 2 2 3 2 2 2 2 2 3 3 4 5 5 5 5 5 4 5 7 7 6 6 8 9 10 10 10 10 10 12 11 11 12 13
3 5 5 5 5 3 2 2 2 2 1 1 2 2 4 4 2 3 3 3 4 5 5 5 6 6 6 5 7 8 6 8 10 11 11 11 12 11 10 12 12 10 10 10
1 2 3 1 3 3 2 1 2 1 1 1 2 3 3 4 4 3 3 3 4 5 5 5 7 8 7 7 8 10 9 9 11 12 12 11 12 12 11 9 9 9 9 9
3 3 2 2 3 2 2 1 2 2 2 2 3 3 4 5 4 4 4 4 4 5 6 6 7 9 9 9 9 10 10 12 14 14 13 12 12 13 12 12 10 9 7 7
3 5 5 5 5 4 3 2 1 1 1 2 3 3 4 5 5 6 6 5 6 7 7 8 9 10 10 10 11 10 10 12 14 13 12 11 11 11 12 13 14 18 15 17
Wind_Direction
142 121 195 203 194 195 199 260 281 279 294 313 298 292 290 263 194 188 184 182 181 187 177 158 153 156 157 165 172 176 174 171 168 167 170 171 177 173 177 184 184 182 180 176
84 240 222 194 187 195 219 269 281 294 332 307 299 300 294 260 218 209 198 192 188 180 170 162 158 161 167 177 181 183 182 177 176 177 174 170 163 166 175 178 177 181 177 177
186 222 185 175 197 211 238 229 252 268 325 355 323 317 294 286 306 244 205 196 189 186 182 175 170 172 173 180 186 189 185 180 176 167 153 142 128 117 147 173 175 184 179 180
217 238 206 205 218 192 254 230 224 249 300 296 19 281 286 276 298 257 225 204 197 188 181 179 180 181 183 187 186 183 179 176 173 166 166 167 170 177 185 180 177 174 176 177
220 208 190 210 221 186 221 224 210 230 200 276 330 197 282 298 273 258 238 213 198 193 185 184 185 187 184 180 179 180 175 175 170 170 174 177 175 179 167 159 166 172 172 175
225 217 194 203 213 192 201 64 49 50 81 265 257 191 277 249 235 250 236 214 196 191 188 183 178 172 171 168 167 167 169 172 169 169 174 179 175 170 164 166 172 173 170 172
274 261 230 188 207 232 135 98 23 354 10 249 266 212 253 256 236 231 233 214 189 183 186 180 173 170 167 163 162 161 165 167 166 169 177 182 179 178 178 176 176 173 174 179
208 272 234 195 193 193 177 151 165 198 222 268 307 239 256 263 245 220 202 186 174 182 177 174 177 172 168 163 161 161 165 167 169 175 183 183 180 180 182 181 175 179 183 181
186 245 276 223 190 158 153 182 168 141 156 266 281 282 302 282 280 226 192 169 176 181 173 169 169 169 167 165 167 166 165 167 171 177 179 180 180 181 181 180 174 176 175 171
160 226 288 297 105 104 146 143 109 132 152 221 282 281 262 278 267 240 194 183 185 175 173 167 168 165 164 165 162 161 165 171 174 175 180 183 183 182 179 177 178 179 176 168
151 181 293 8 154 182 128 116 116 119 148 156 222 268 233 234 232 219 207 188 182 176 175 173 168 164 158 157 159 163 168 171 175 177 178 179 180 178 173 178 183 179 174 169
157 142 230 268 270 212 162 163 147 149 187 164 169 261 277 246 236 209 202 178 171 169 167 165 164 161 163 165 168 171 175 181 183 177 174 178 177 174 174 183 181 172 170 172
138 127 110 343 338 8 107 129 135 122 116 145 163 261 309 338 306 190 177 171 161 155 153 155 161 168 170 170 170 172 176 180 176 172 173 174 173 172 175 178 170 162 162 164
119 118 164 192 210 194 165 149 143 123 133 173 208 246 293 306 290 258 172 168 163 158 156 159 165 169 167 165 165 169 174 173 168 165 168 170 172 169 166 161 156 154 153 154
102 124 168 211 212 170 173 173 164 155 167 171 214 224 261 276 267 245 168 154 154 159 160 165 169 170 163 161 163 172 168 164 162 157 159 162 155 146 140 139 140 139 142 149
76 118 101 30 19 135 125 139 144 134 150 170 178 245 272 307 67 96 145 157 163 172 174 171 167 166 165 167 168 169 167 161 154 154 156 149 138 136 137 138 133 130 128 125
77 112 104 207 314 71 156 221 164 151 179 165 190 231 293 357 25 146 161 166 173 170 170 173 173 174 171 168 164 168 170 156 152 153 150 149 146 145 144 140 131 132 130 120
126 107 116 135 109 195 238 279 147 127 101 70 182 252 192 167 57 50 104 164 173 171 174 176 173 172 169 158 151 151 150 151 152 149 148 146 144 143 137 131 129 127 118 115
134 131 120 129 165 234 269 210 151 138 173 283 165 144 117 114 52 14 30 48 173 193 174 170 165 162 158 156 154 145 145 148 151 153 152 152 149 144 137 132 127 123 117 109
58 89 117 130 157 210 231 284 306 116 213 259 165 165 169 105 72 287 4 25 25 42 85 116 125 127 139 150 149 144 148 150 157 158 154 147 143 140 135 130 122 112 109 107
55 56 111 146 185 244 264 305 69 163 220 209 178 176 165 171 194 218 11 24 35 60 75 90 108 115 130 137 138 143 148 155 154 143 134 129 128 126 124 121 117 115 111 105
147 133 157 143 170 234 305 51 171 212 248 158 163 158 141 135 114 84 56 48 54 61 70 85 96 96 101 121 130 130 134 128 122 122 121 120 117 117 120 117 113 113 113 109
174 180 178 184 205 244 280 226 269 240 209 187 163 159 144 134 119 91 67 51 51 61 63 77 98 94 84 93 115 118 113 116 117 114 112 111 107 105 111 116 116 112 110 110
261 132 136 217 261 262 291 319 338 345 218 221 160 146 144 140 129 110 92 70 61 62 65 77 99 102 94 90 97 106 110 114 111 107 104 104 104 99 94 93 99 108 112 114
218 157 149 239 271 312 330 331 332 23 47 74 85 103 130 132 127 125 114 95 83 78 71 76 87 95 96 96 97 101 107 109 105 101 100 98 97 98 91 82 74 82 75 105
201 175 172 213 223 202 231 247 318 42 64 92 94 88 98 120 127 119 109 98 94 90 87 87 87 91 93 95 94 92 98 105 108 105 101 100 101 100 100 97 83 64 74 77
Height
1478 1485 1490 1488 1486 1487 1489 1492 1495 1486 1476 1478 1479 1477 1472 1469 1469 1469 1469 1471 1472 1473 1476 1478 1481 1485 1489 1493 1497 1500 1503 1508 1512 1516 1520 1525 1529 1534 1538 1541 1544 1547 1550 1553
1482 1485 1479 1479 1482 1485 1488 1493 1492 1483 1475 1477 1479 1477 1471 1469 1468 1468 1468 1469 1470 1471 1474 1476 1479 1483 1486 1489 1493 1497 1501 1505 1509 1513 1518 1522 1527 1531 1535 1539 1542 1545 1548 1551
1480 1477 1472 1477 1481 1485 1487 1491 1489 1487 1479 1477 1480 1482 1474 1468 1468 1467 1467 1467 1468 1469 1471 1475 1478 1481 1484 1487 1491 1494 1498 1502 1506 1511 1516 1521 1525 1529 1533 1536 1539 1543 1546 1549
1475 1470 1471 1475 1479 1481 1489 1479 1480 1482 1489 1494 1486 1500 1480 1471 1469 1466 1466 1466 1466 1468 1470 1473 1475 1478 1481 1484 1487 1491 1495 1499 1503 1508 1513 1517 1521 1525 1529 1533 1537 1541 1544 1547
1471 1466 1469 1473 1472 1473 1477 1472 1476 1479 1487 1494 1491 1498 1488 1474 1472 1466 1463 1463 1465 1467 1469 1471 1474 1476 1479 1482 1485 1489 1493 1497 1501 1506 1510 1515 1519 1524 1528 1532 1535 1539 1542 1545
1463 1460 1461 1463 1461 1464 1467 1473 1481 1489 1496 1505 1494 1497 1492 1477 1468 1463 1461 1462 1464 1466 1468 1470 1473 1476 1478 1481 1483 1486 1490 1494 1498 1503 1508 1512 1516 1521 1525 1529 1532 1536 1540 1543
1466 1461 1456 1457 1463 1464 1469 1487 1505 1505 1513 1509 1492 1494 1488 1465 1461 1460 1460 1461 1462 1465 1467 1469 1472 1474 1476 1479 1482 1485 1489 1492 1496 1501 1505 1510 1514 1518 1522 1526 1530 1533 1537 1540
1475 1474 1456 1452 1457 1465 1470 1480 1503 1512 1513 1506 1494 1494 1476 1459 1457 1457 1458 1460 1461 1463 1465 1468 1471 1473 1476 1478 1481 1484 1488 1491 1495 1499 1503 1508 1512 1516 1520 1524 1527 1531 1534 1538
1473 1470 1449 1446 1446 1454 1468 1476 1474 1495 1501 1505 1498 1486 1469 1457 1457 1456 1457 1459 1460 1462 1464 1467 1470 1472 1475 1478 1481 1484 1487 1490 1493 1497 1502 1506 1510 1514 1518 1521 1525 1528 1532 1535
1457 1464 1451 1445 1446 1450 1455 1466 1482 1494 1508 1509 1497 1489 1481 1462 1458 1456 1457 1458 1460 1462 1464 1466 1469 1471 1474 1477 1480 1484 1486 1489 1492 1496 1499 1503 1508 1511 1515 1519 1522 1526 1529 1532
1449 1461 1457 1452 1452 1455 1460 1467 1477 1489 1492 1505 1505 1492 1462 1459 1455 1455 1455 1457 1459 1461 1463 1465 1468 1470 1473 1476 1479 1482 1485 1488 1491 1494 1498 1501 1505 1509 1513 1516 1520 1523 1527 1530
1447 1459 1467 1458 1448 1446 1450 1458 1470 1482 1489 1494 1497 1488 1453 1453 1452 1452 1454 1457 1459 1461 1463 1465 1467 1470 1473 1475 1477 1480 1483 1486 1489 1492 1495 1499 1503 1507 1510 1514 1517 1521 1524 1528
1445 1459 1472 1469 1462 1452 1452 1456 1462 1471 1485 1494 1494 1480 1452 1451 1451 1452 1454 1456 1458 1460 1462 1465 1467 1469 1472 1474 1476 1479 1482 1485 1487 1490 1494 1498 1501 1505 1508 1512 1515 1518 1522 1525
1439 1455 1464 1471 1466 1455 1454 1455 1459 1466 1481 1485 1480 1469 1456 1453 1452 1452 1453 1455 1457 1459 1461 1463 1466 1469 1471 1473 1475 1478 1480 1483 1486 1489 1493 1496 1499 1503 1506 1510 1514 1517 1520 1523
1439 1453 1454 1453 1449 1449 1450 1452 1454 1458 1464 1471 1467 1464 1456 1453 1452 1452 1452 1454 1456 1457 1459 1462 1464 1467 1470 1472 1475 1477 1480 1482 1485 1488 1491 1494 1498 1501 1505 1509 1512 1515 1518 1522
1442 1451 1452 1453 1449 1448 1451 1451 1452 1454 1456 1458 1459 1460 1452 1451 1451 1451 1452 1453 1454 1456 1458 1461 1463 1466 1469 1471 1474 1477 1479 1482 1485 1488 1491 1494 1497 1500 1504 1508 1511 1514 1517 1520
1447 1451 1459 1463 1455 1451 1462 1454 1453 1454 1454 1455 1458 1456 1452 1451 1451 1451 1452 1452 1453 1455 1457 1460 1462 1465 1467 1470 1473 1476 1479 1482 1485 1488 1491 1494 1497 1500 1504 1507 1510 1513 1516 1519
1447 1455 1464 1467 1461 1471 1461 1449 1448 1452 1453 1452 1452 1452 1452 1452 1452 1452 1452 1453 1453 1455 1456 1459 1461 1464 1466 1469 1472 1475 1478 1481 1484 1487 1490 1493 1497 1500 1503 1506 1508 1512 1515 1518
1443 1452 1464 1471 1472 1466 1456 1449 1449 1452 1455 1452 1452 1452 1452 1452 1452 1452 1452 1453 1454 1455 1456 1458 1460 1463 1465 1468 1471 1474 1477 1479 1483 1486 1488 1492 1495 1499 1501 1504 1507 1510 1513 1516
1447 1450 1461 1469 1470 1473 1458 1448 1447 1451 1458 1451 1451 1451 1452 1452 1456 1455 1453 1453 1453 1454 1454 1456 1459 1461 1464 1467 1469 1472 1474 1477 1480 1484 1487 1490 1494 1497 1500 1503 1506 1509 1512 1515
1454 1458 1462 1466 1467 1462 1451 1448 1448 1461 1457 1449 1449 1450 1451 1452 1453 1454 1453 1453 1453 1453 1454 1456 1458 1460 1463 1466 1468 1470 1473 1475 1479 1483 1486 1489 1493 1495 1498 1501 1504 1507 1510 1513
1456 1460 1464 1467 1467 1464 1449 1448 1451 1451 1447 1447 1448 1449 1451 1451 1451 1452 1453 1453 1453 1453 1454 1456 1458 1459 1462 1464 1467 1470 1472 1475 1478 1481 1484 1487 1491 1494 1497 1500 1503 1507 1510 1513
1454 1455 1457 1459 1459 1451 1448 1448 1448 1447 1447 1447 1448 1449 1450 1450 1451 1452 1453 1453 1454 1454 1455 1457 1458 1460 1462 1464 1466 1469 1472 1475 1477 1480 1483 1486 1490 1493 1497 1500 1503 1507 1510 1513
1451 1451 1453 1454 1451 1449 1448 1446 1447 1447 1447 1447 1448 1449 1449 1450 1451 1452 1453 1454 1455 1456 1457 1458 1459 1460 1462 1464 1466 1469 1472 1474 1477 1480 1484 1487 1489 1493 1497 1501 1505 1508 1512 1515
1449 1450 1452 1452 1449 1448 1446 1447 1447 1447 1447 1447 1448 1449 1449 1450 1451 1453 1454 1455 1456 1457 1458 1459 1460 1461 1463 1465 1467 1469 1472 1475 1478 1481 1484 1488 1491 1495 1499 1503 1507 1511 1514 1517
1447 1448 1450 1450 1447 1447 1446 1446 1447 1447 1446 1447 1448 1449 1450 1450 1451 1453 1455 1456 1457 1458 1460 1461 1462 1463 1465 1467 1469 1471 1474 1477 1479 1482 1486 1490 1494 1498 1501 1504 1509 1513 1517 1520